Ord, NE

6:23 AM CDT on April 24, 2018 (GMT -0500)
Sharp

Weather History for KODX - September, 2011

Change the Weather History Date:

Sunday, September 4, 2011

  Actual Average Record
Temperature  
Mean Temperature 58 °F 69 °F  
Max Temperature 72 °F 83 °F 100 °F (2012)
Min Temperature 44 °F 55 °F 41 °F (2010)
Degree Days  
Heating Degree Days 7 1  
Month to date heating degree days 11 4  
Since 1 July heating degree days 11 18  
Cooling Degree Days 0 5  
Month to date cooling degree days 20 22  
Year to date cooling degree days 889 779  
Growing Degree Days 8 (Base 50)    
Moisture  
Dew Point 44 °F    
Average Humidity 61    
Maximum Humidity 93    
Minimum Humidity 29    
Precipitation  
Precipitation 0.00 in 0.10 in 3.50 in (1943)
Month to date precipitation 0.34 0.39  
Year to date precipitation 19.62 19.30  
Sea Level Pressure  
Sea Level Pressure 30.25 in    
Wind  
Wind Speed 7 mph (NNW)    
Max Wind Speed 20 mph    
Max Gust Speed 25 mph    
Visibility 10 miles    
Events      
T = Trace of Precipitation, MM = Missing Value Source: NWS Daily Summary

Daily Weather History Graph

Daily Weather History Graph

Search for Another Location

Airport or City:

Astronomy

Sep. 04, 2011 Rise Set
Actual Time 7:04 AM CDT 8:04 PM CDT
Civil Twilight 6:36 AM CDT 8:32 PM CDT
Nautical Twilight 6:02 AM CDT 9:06 PM CDT
Astronomical Twilight 5:27 AM CDT 9:41 PM CDT
Moon 2:57 PM CDT (9/4) No Moon Set
Length of Visible Light 13h 56m
Length of Day
12h 59m
Waxing Crescent, 50% of the Moon is Illuminated
Sep 4
Waxing Crescent
Sep 4
First Quarter
Sep 12
Full
Sep 20
Last Quarter
Sep 27
New

Hourly Weather History & Observations

Time (CDT) Temp. Windchill Dew Point Humidity Pressure Visibility Wind Dir Wind Speed Gust Speed Precip Events Conditions
12:53 AM 51.1 °F - 46.9 °F 86% 30.23 in 10.0 mi NW 6.9 mph - N/A   Clear
1:53 AM 48.0 °F - 46.0 °F 93% 30.24 in 10.0 mi NW 5.8 mph - N/A   Clear
2:53 AM 46.4 °F 45.2 °F 44.6 °F 93% 30.23 in 10.0 mi NW 3.5 mph - N/A   Clear
3:53 AM 46.4 °F 42.9 °F 44.6 °F 93% 30.23 in 10.0 mi NNW 6.9 mph - N/A   Clear
4:53 AM 46.0 °F 42.5 °F 44.1 °F 93% 30.24 in 10.0 mi NNW 6.9 mph - N/A   Clear
5:53 AM 45.0 °F 41.2 °F 43.0 °F 93% 30.25 in 10.0 mi NW 6.9 mph - N/A   Clear
6:53 AM 44.6 °F 41.4 °F 42.8 °F 93% 30.26 in 10.0 mi NNW 5.8 mph - N/A   Clear
7:53 AM 46.9 °F - 44.1 °F 90% 30.29 in 10.0 mi NNW 4.6 mph - N/A   Clear
8:53 AM 52.0 °F - 48.0 °F 86% 30.29 in 10.0 mi NNW 6.9 mph - N/A   Clear
9:53 AM 57.0 °F - 48.0 °F 72% 30.30 in 10.0 mi NW 9.2 mph - N/A   Clear
10:53 AM 64.0 °F - 50.0 °F 60% 30.30 in 10.0 mi NW 6.9 mph - N/A   Clear
11:53 AM 69.1 °F - 43.0 °F 39% 30.29 in 10.0 mi NNW 13.8 mph 19.6 mph N/A   Clear
12:53 PM 70.0 °F - 39.9 °F 33% 30.27 in 10.0 mi NNW 13.8 mph - N/A   Clear
1:53 PM 71.1 °F - 41.0 °F 34% 30.26 in 10.0 mi North 13.8 mph - N/A   Partly Cloudy
2:53 PM 72.0 °F - 39.9 °F 31% 30.25 in 10.0 mi North 12.7 mph 20.7 mph N/A   Clear
3:53 PM 72.0 °F - 37.0 °F 28% 30.23 in 10.0 mi North 13.8 mph - N/A   Clear
4:53 PM 71.1 °F - 39.0 °F 31% 30.22 in 10.0 mi NNE 12.7 mph 18.4 mph N/A   Clear
5:53 PM 70.0 °F - 39.9 °F 33% 30.22 in 10.0 mi NNE 12.7 mph - N/A   Clear
6:53 PM 66.9 °F - 41.0 °F 39% 30.24 in 10.0 mi North 8.1 mph - N/A   Clear
7:53 PM 61.0 °F - 45.0 °F 56% 30.24 in 10.0 mi NNE 3.5 mph - N/A   Clear
8:53 PM 52.0 °F - 46.9 °F 83% 30.25 in 10.0 mi Calm Calm - N/A   Clear
9:53 PM 50.0 °F - 46.0 °F 86% 30.26 in 10.0 mi Calm Calm - N/A   Clear
10:53 PM 48.0 °F - 45.0 °F 89% 30.26 in 10.0 mi Calm Calm - N/A   Clear
11:53 PM 46.0 °F - 44.1 °F 93% 30.26 in 10.0 mi Calm Calm - N/A   Clear